GW1941 Weather Reports


Display with metric or nautical units.
time (UTC)temp
F
wind
direction
speed
MPH
gust
MPH
rain 1hr
in
rain 24hr
in
rain mn
in
humidity
%
barometer
mb
20260905095450 69 262 0.0 0.0 0.00 0.21 0.21 99 1010.4
20260905094945 69 263 0.0 0.0 0.00 0.21 0.21 99 1010.5
20260905094440 69 271 0.0 0.0 0.00 0.21 0.21 99 1010.4
20260905093939 69 264 0.0 0.0 0.00 0.21 0.21 99 1010.5
20260905093435 69 263 0.0 0.0 0.00 0.21 0.21 99 1010.2
20260905092930 69 262 0.0 0.0 0.00 0.21 0.21 99 1010.4
20260905092426 70 266 0.0 0.0 0.00 0.21 0.21 99 1010.4
20260905091920 70 264 0.0 0.0 0.00 0.21 0.21 99 1010.4
20260905091415 70 264 0.0 0.0 0.00 0.21 0.21 99 1010.2
20260905090914 70 264 0.0 0.0 0.00 0.21 0.21 99 1010.4
20260905090410 70 264 0.0 0.0 0.00 0.21 0.21 99 1010.4
20260905085908 70 264 0.0 0.0 0.00 0.21 0.21 99 1010.3
20260905085403 70 264 0.0 0.0 0.00 0.21 0.21 99 1010.2
20260905084859 70 268 0.0 0.0 0.00 0.21 0.21 99 1010.4
20260905084358 70 264 0.0 0.0 0.00 0.21 0.21 99 1010.2
20260905083853 71 264 0.0 0.0 0.00 0.21 0.21 99 1010.4
20260905083348 70 265 0.0 0.0 0.00 0.21 0.21 99 1010.2
20260905082844 71 264 0.0 0.0 0.00 0.21 0.21 99 1010.2
20260905082340 71 264 0.0 0.0 0.00 0.21 0.21 99 1010.4
20260905081835 70 263 0.0 0.0 0.00 0.21 0.21 99 1010.2
20260905081330 70 264 0.0 0.0 0.00 0.21 0.21 99 1010.4
20260905080829 71 264 0.0 0.0 0.00 0.21 0.21 99 1010.6
20260905080324 70 264 0.0 0.0 0.00 0.21 0.21 99 1010.3
20260905075822 71 263 0.0 0.0 0.00 0.21 0.21 99 1010.2
20260905075322 71 263 0.0 0.0 0.00 0.21 0.21 99 1010.3
20260905074821 71 264 0.0 0.0 0.00 0.21 0.21 99 1010.3
20260905074317 71 264 0.0 0.0 0.00 0.21 0.21 99 1010.3
20260905073812 71 263 0.0 0.0 0.00 0.21 0.21 99 1010.4
20260905073307 71 264 0.0 0.0 0.00 0.21 0.21 99 1010.3
20260905072802 71 264 0.0 0.0 0.00 0.21 0.21 99 1010.2
20260905072257 71 264 0.0 0.0 0.00 0.21 0.21 99 1010.5
20260905071754 71 264 0.0 0.0 0.00 0.21 0.21 99 1010.7
20260905071249 71 264 0.0 0.0 0.00 0.21 0.21 99 1010.7
20260905070744 71 262 0.0 0.0 0.00 0.21 0.21 98 1010.7
20260905070241 71 264 0.0 0.0 0.00 0.21 0.21 98 1010.7
20260905065739 71 264 0.0 0.0 0.00 0.21 0.21 98 1011.0
20260905065239 71 262 0.0 0.0 0.00 0.21 0.21 98 1010.8
20260905064734 72 262 0.0 0.0 0.00 0.21 0.21 98 1010.8
20260905064229 72 262 0.0 0.0 0.00 0.21 0.21 98 1010.9
20260905063728 72 264 0.0 0.0 0.00 0.21 0.21 98 1011.1
20260905063224 72 264 0.0 0.0 0.00 0.21 0.21 98 1011.3
20260905062720 72 264 0.0 0.0 0.05 0.21 0.21 98 1011.1
20260905062214 72 262 0.0 0.0 0.12 0.21 0.21 98 1011.1
20260905061713 72 262 0.0 0.0 0.12 0.20 0.20 98 1010.9
20260905061208 72 268 0.0 0.0 0.05 0.19 0.19 98 1011.2
20260905060703 72 265 0.0 0.0 0.00 0.18 0.18 97 1011.2
20260905060200 71 264 0.0 0.0 0.00 0.18 0.18 97 1011.3
20260905055658 71 272 0.0 0.0 0.00 0.18 0.18 97 1011.6
20260905055154 72 263 0.0 0.0 0.00 0.18 0.18 97 1011.4
20260905054649 72 251 0.0 1.0 0.38 0.18 0.18 97 1011.3
20260905054145 72 258 1.0 1.0 0.85 0.18 0.18 96 1011.4
20260905053644 74 128 3.0 5.0 0.61 0.11 0.11 95 1011.7
20260905053139 75 261 1.0 2.0 0.24 0.04 0.04 94 1011.5
20260905052638 77 264 2.0 2.0 0.05 0.01 0.01 91 1011.5
20260905052128 77 260 0.0 0.0 0.00 0.00 0.00 88 1011.6
20260905051623 77 269 1.0 1.0 0.00 0.00 0.00 88 1011.5
20260905051120 76 162 2.0 3.0 0.00 0.00 0.00 89 1011.3
20260905050616 76 258 0.0 0.0 0.00 0.00 0.00 90 1011.4
20260905050113 76 251 0.0 0.0 0.00 0.00 0.00 90 1011.3
20260905045612 76 262 0.0 0.0 0.00 0.00 0.00 90 1011.3
20260905045108 76 262 0.0 0.0 0.00 0.00 0.00 89 1011.3
20260905044608 76 262 0.0 0.0 0.00 0.00 0.00 89 1011.3
20260905044102 76 264 0.0 0.0 0.00 0.00 0.00 88 1011.2
20260905043601 76 266 0.0 0.0 0.00 0.00 0.00 88 1011.5
20260905043057 77 263 0.0 0.0 0.00 0.00 0.00 88 1011.5
20260905042555 77 262 0.0 0.0 0.00 0.00 0.00 88 1011.3
20260905042051 77 262 0.0 0.0 0.00 0.00 0.00 87 1011.3
20260905041546 77 261 0.0 0.0 0.00 0.00 0.00 87 1011.5
20260905041042 77 263 0.0 0.0 0.00 0.00 0.00 87 1011.4
20260905040541 77 262 0.0 0.0 0.00 0.00 0.00 87 1011.2
20260905040040 77 262 0.0 0.0 0.00 0.00 0.00 88 1011.7
20260905035535 76 262 0.0 0.0 0.00 0.00 0.00 88 1011.6
20260905035032 77 264 0.0 0.0 0.00 0.00 0.00 88 1011.7
20260905034527 77 263 0.0 0.0 0.00 0.00 0.00 88 1011.6
20260905034027 77 263 0.0 0.0 0.00 0.00 0.00 87 1011.7
20260905033521 77 264 0.0 0.0 0.00 0.00 0.00 87 1011.6
20260905033017 77 264 0.0 0.0 0.00 0.00 0.00 87 1011.7
20260905032511 76 265 0.0 0.0 0.00 0.00 0.00 87 1011.7
20260905032007 77 262 0.0 0.0 0.00 0.00 0.00 88 1011.7
20260905031502 77 263 0.0 0.0 0.00 0.00 0.00 88 1011.7
20260905030957 77 262 0.0 0.0 0.00 0.00 0.00 88 1011.7
20260905030453 77 262 0.0 0.0 0.00 0.00 0.00 87 1011.7
20260905025951 77 262 0.0 0.0 0.00 0.00 0.00 87 1011.8
20260905025447 77 262 0.0 0.0 0.00 0.00 0.00 87 1011.6
20260905024944 77 262 0.0 0.0 0.00 0.00 0.00 87 1011.4
20260905024443 77 262 0.0 0.0 0.00 0.00 0.00 87 1011.7
20260905023933 77 262 0.0 0.0 0.00 0.00 0.00 86 1011.6
20260905023428 77 262 0.0 0.0 0.00 0.00 0.00 86 1011.6
20260905022927 77 262 0.0 0.0 0.00 0.00 0.00 86 1011.5
20260905022423 77 261 0.0 0.0 0.00 0.00 0.00 86 1011.3
20260905021918 77 261 0.0 0.0 0.00 0.00 0.00 86 1011.4
20260905021417 77 262 0.0 0.0 0.00 0.00 0.00 85 1011.4
20260905020913 77 261 0.0 0.0 0.00 0.00 0.00 85 1011.5
20260905020407 77 260 0.0 0.0 0.00 0.00 0.00 85 1011.5
20260905015906 77 262 0.0 0.0 0.00 0.00 0.00 85 1011.4
20260905015405 77 261 0.0 0.0 0.00 0.00 0.00 85 1011.7
20260905014904 77 261 0.0 0.0 0.00 0.00 0.00 84 1011.5
20260905014400 77 260 0.0 0.0 0.00 0.00 0.00 84 1011.7
20260905013855 77 263 0.0 0.0 0.00 0.00 0.00 84 1011.6
20260905013351 78 262 0.0 0.0 0.00 0.00 0.00 84 1011.6
20260905012846 78 259 0.0 0.0 0.00 0.00 0.00 83 1011.3
20260905012342 78 254 0.0 0.0 0.00 0.00 0.00 83 1011.6
20260905011839 78 261 0.0 0.0 0.00 0.00 0.00 82 1011.6
20260905011334 78 261 0.0 0.0 0.00 0.00 0.00 83 1011.5
20260905010829 78 261 0.0 0.0 0.00 0.00 0.00 83 1011.5
20260905010324 78 261 0.0 0.0 0.00 0.00 0.00 83 1011.5
20260905005820 78 257 0.0 0.0 0.00 0.00 0.00 82 1011.6
20260905005316 78 258 0.0 0.0 0.00 0.00 0.00 82 1011.5
20260905004810 78 257 0.0 1.0 0.00 0.00 0.00 82 1011.5
20260905004305 78 259 0.0 0.0 0.00 0.00 0.00 83 1011.5
20260905003800 78 261 0.0 0.0 0.00 0.00 0.00 83 1011.2
20260905003256 78 260 0.0 0.0 0.00 0.00 0.00 83 1011.5
20260905002752 78 261 0.0 0.0 0.00 0.00 0.00 83 1011.2
20260905002251 78 260 0.0 0.0 0.00 0.00 0.00 82 1011.1
20260905001746 78 258 0.0 0.0 0.00 0.00 0.00 82 1011.0
20260905001246 79 262 0.0 0.0 0.00 0.00 0.00 81 1011.0
20260905000741 79 264 0.0 0.0 0.00 0.00 0.00 81 1011.2
20260905000237 79 262 0.0 0.0 0.00 0.00 0.00 81 1011.1
20260904235732 79 262 0.0 0.0 0.00 0.00 0.00 80 1010.9
20260904235226 79 261 0.0 0.0 0.00 0.00 0.00 80 1011.1
20260904234721 80 262 0.0 0.0 0.00 0.00 0.00 79 1011.1
20260904234217 80 262 0.0 0.0 0.00 0.00 0.00 79 1011.2
20260904233712 80 262 0.0 0.0 0.00 0.00 0.00 79 1011.1
20260904233208 80 265 0.0 0.0 0.00 0.00 0.00 78 1011.1
20260904232705 80 261 0.0 0.0 0.00 0.00 0.00 78 1011.3
20260904232201 81 267 0.0 0.0 0.00 0.00 0.00 78 1011.1
20260904231656 81 262 0.0 0.0 0.00 0.00 0.00 78 1011.1
20260904231150 81 264 0.0 0.0 0.00 0.00 0.00 78 1011.4
20260904230650 81 259 0.0 0.0 0.00 0.00 0.00 78 1011.5
20260904230140 81 259 0.0 0.0 0.00 0.00 0.00 78 1011.4
20260904225638 81 248 0.0 0.0 0.00 0.00 0.00 78 1011.4
20260904225133 81 261 0.0 0.0 0.00 0.00 0.00 78 1011.4
20260904224627 82 261 0.0 0.0 0.00 0.00 0.00 78 1011.4
20260904224122 82 253 0.0 0.0 0.00 0.00 0.00 78 1011.3
20260904223621 82 259 0.0 0.0 0.00 0.00 0.00 78 1011.3
20260904223116 82 250 0.0 0.0 0.00 0.00 0.00 77 1011.3
20260904222612 82 261 0.0 0.0 0.00 0.00 0.00 77 1011.5
20260904222102 82 259 0.0 0.0 0.00 0.00 0.00 77 1011.4
20260904221602 82 260 0.0 0.0 0.00 0.00 0.00 77 1011.3
20260904221101 82 261 0.0 0.0 0.00 0.00 0.00 76 1011.2
20260904220556 83 258 0.0 0.0 0.00 0.00 0.00 76 1011.3
20260904220052 83 258 0.0 0.0 0.00 0.00 0.00 75 1011.1
20260904215552 84 261 0.0 0.0 0.00 0.00 0.00 74 1011.3
20260904215047 84 267 0.0 0.0 0.00 0.00 0.00 71 1011.5
20260904214542 84 264 0.0 0.0 0.00 0.00 0.00 71 1011.5
20260904214033 84 261 0.0 0.0 0.00 0.00 0.00 70 1011.3
20260904213531 85 262 0.0 0.0 0.00 0.00 0.00 70 1011.5
20260904213028 85 278 1.0 2.0 0.00 0.00 0.00 67 1011.1
20260904212526 86 282 1.0 2.0 0.00 0.00 0.00 69 1011.2
20260904212021 85 267 1.0 1.0 0.00 0.00 0.00 71 1011.3
20260904211516 85 257 0.0 0.0 0.00 0.00 0.00 70 1011.3
20260904211012 85 258 0.0 0.0 0.00 0.00 0.00 70 1011.2
20260904210511 85 259 0.0 0.0 0.00 0.00 0.00 71 1011.4
20260904210007 86 250 0.0 0.0 0.00 0.00 0.00 69 1011.3
20260904205502 86 263 1.0 2.0 0.00 0.00 0.00 66 1011.3
20260904204959 86 259 0.0 1.0 0.00 0.00 0.00 67 1011.3
20260904204454 86 258 0.0 0.0 0.00 0.00 0.00 67 1011.4
20260904203950 86 267 1.0 1.0 0.00 0.00 0.00 66 1011.2
20260904203446 86 260 0.0 0.0 0.00 0.00 0.00 67 1011.6
20260904202942 85 262 0.0 0.0 0.00 0.00 0.00 66 1011.3
20260904202438 86 261 1.0 1.0 0.00 0.00 0.00 65 1011.3
20260904201934 87 255 1.0 2.0 0.00 0.00 0.00 64 1011.3
20260904201429 87 263 0.0 0.0 0.00 0.00 0.00 64 1011.4
20260904200925 87 297 0.0 1.0 0.00 0.00 0.00 63 1011.3
20260904200422 87 323 3.0 3.0 0.00 0.00 0.00 62 1011.8
20260904195918 87 256 1.0 1.0 0.00 0.00 0.00 66 1011.5
20260904195416 87 267 0.0 1.0 0.00 0.00 0.00 65 1011.8
20260904194915 87 261 1.0 2.0 0.00 0.00 0.00 65 1011.8
20260904194410 87 272 0.0 0.0 0.00 0.00 0.00 64 1011.8
20260904193905 87 272 3.0 3.0 0.00 0.00 0.00 63 1011.7
20260904193400 87 243 2.0 3.0 0.00 0.00 0.00 63 1011.8
20260904192856 88 257 2.0 3.0 0.00 0.00 0.00 62 1012.2
20260904192351 88 254 1.0 1.0 0.00 0.00 0.00 65 1012.3
20260904191848 87 260 1.0 1.0 0.00 0.00 0.00 65 1012.2
20260904191344 87 260 2.0 3.0 0.00 0.00 0.00 64 1012.2
20260904190840 87 263 0.0 0.0 0.00 0.00 0.00 64 1012.0
20260904190335 88 260 0.0 1.0 0.00 0.00 0.00 62 1012.4
20260904185832 88 270 0.0 1.0 0.00 0.00 0.00 63 1012.2
20260904185327 88 254 2.0 2.0 0.00 0.00 0.00 62 1012.6
20260904184826 87 260 1.0 1.0 0.00 0.00 0.00 64 1012.1
20260904184322 89 274 2.0 2.0 0.00 0.00 0.00 59 1012.3
20260904183817 90 287 2.0 3.0 0.00 0.00 0.00 58 1012.4
20260904183312 90 258 1.0 1.0 0.00 0.00 0.00 62 1012.3
20260904182807 89 285 1.0 2.0 0.00 0.00 0.00 58 1012.5
20260904182306 91 359 2.0 5.0 0.00 0.00 0.00 59 1012.3
20260904181758 92 257 1.0 1.0 0.00 0.00 0.00 58 1012.6
20260904181257 91 261 2.0 3.0 0.00 0.00 0.00 60 1012.4
20260904180753 91 271 1.0 2.0 0.00 0.00 0.00 57 1012.5
20260904180248 91 267 1.0 1.0 0.00 0.00 0.00 56 1012.2
20260904175747 89 256 1.0 2.0 0.00 0.00 0.00 58 1012.4
20260904175245 89 265 1.0 2.0 0.00 0.00 0.00 60 1012.5
20260904174740 90 247 1.0 1.0 0.00 0.00 0.00 60 1012.7
20260904174237 90 310 2.0 3.0 0.00 0.00 0.00 61 1012.8
20260904173733 90 253 1.0 1.0 0.00 0.00 0.00 62 1012.6
20260904173232 90 295 4.0 5.0 0.00 0.00 0.00 60 1012.6
20260904172729 90 259 0.0 0.0 0.00 0.00 0.00 62 1012.8
20260904172227 89 252 0.0 1.0 0.00 0.00 0.00 63 1012.7
20260904171723 89 258 1.0 1.0 0.00 0.00 0.00 63 1012.5
20260904171218 89 248 1.0 1.0 0.00 0.00 0.00 61 1012.4
20260904170715 90 258 1.0 2.0 0.00 0.00 0.00 62 1012.5
20260904170210 90 270 4.0 6.0 0.00 0.00 0.00 59 1012.4
20260904165708 90 272 2.0 3.0 0.00 0.00 0.00 61 1012.6
20260904165203 89 257 2.0 2.0 0.00 0.00 0.00 62 1012.3
20260904164657 88 279 3.0 3.0 0.00 0.00 0.00 61 1012.4
20260904164152 88 257 3.0 5.0 0.00 0.00 0.00 64 1012.4
20260904163649 88 264 1.0 2.0 0.00 0.00 0.00 64 1012.4
20260904163144 89 261 0.0 1.0 0.00 0.00 0.00 64 1012.5
20260904162643 89 308 5.0 8.0 0.00 0.00 0.00 61 1012.7
20260904162138 88 266 0.0 1.0 0.00 0.00 0.00 66 1012.7
20260904161633 89 246 4.0 5.0 0.00 0.00 0.00 63 1012.7
20260904161128 89 270 1.0 1.0 0.00 0.00 0.00 63 1012.8
20260904160624 88 263 0.0 0.0 0.00 0.00 0.00 67 1012.7
20260904160120 87 287 4.0 6.0 0.00 0.00 0.00 64 1012.9
20260904155620 87 261 2.0 2.0 0.00 0.00 0.00 65 1012.8
20260904155114 87 265 1.0 2.0 0.00 0.00 0.00 68 1012.9
20260904154608 87 291 3.0 3.0 0.00 0.00 0.00 67 1013.1
20260904154103 87 260 0.0 1.0 0.00 0.00 0.00 69 1013.0
20260904153602 87 263 2.0 3.0 0.00 0.00 0.00 67 1012.8
20260904153059 87 256 5.0 7.0 0.00 0.00 0.00 66 1012.7
20260904152554 87 305 5.0 8.0 0.00 0.00 0.00 67 1013.1
20260904152049 87 264 0.0 0.0 0.00 0.00 0.00 68 1012.9
20260904151544 86 338 2.0 3.0 0.00 0.00 0.00 68 1012.9
20260904151043 86 289 5.0 6.0 0.00 0.00 0.00 68 1013.0
20260904150538 86 302 2.0 3.0 0.00 0.00 0.00 69 1012.8
20260904150033 86 312 4.0 7.0 0.00 0.00 0.00 69 1012.9
20260904145532 86 333 3.0 5.0 0.00 0.00 0.00 68 1012.8
20260904145027 85 317 7.0 9.0 0.00 0.00 0.00 70 1012.7
20260904144524 84 328 8.0 9.0 0.00 0.00 0.00 71 1012.7
20260904144020 85 270 1.0 2.0 0.00 0.00 0.00 73 1012.7
20260904143515 85 272 2.0 5.0 0.00 0.00 0.00 72 1012.7
20260904143012 84 260 0.0 0.0 0.00 0.00 0.00 73 1012.8
20260904142508 84 304 6.0 7.0 0.00 0.00 0.00 72 1013.1
20260904142007 84 272 2.0 2.0 0.00 0.00 0.00 73 1012.7
20260904141502 83 283 3.0 3.0 0.00 0.00 0.00 73 1012.6
20260904140958 83 267 7.0 8.0 0.00 0.00 0.00 73 1012.6
20260904140453 83 162 1.0 2.0 0.00 0.00 0.00 73 1012.7
20260904135951 83 266 4.0 6.0 0.00 0.00 0.00 74 1012.9
20260904135446 83 264 2.0 2.0 0.00 0.00 0.00 74 1012.7
20260904134943 82 296 3.0 5.0 0.00 0.00 0.00 75 1012.8
20260904134442 83 280 3.0 3.0 0.00 0.00 0.00 74 1012.7
20260904133937 82 276 4.0 5.0 0.00 0.00 0.00 76 1012.7
20260904133432 83 254 0.0 0.0 0.00 0.00 0.00 75 1012.8
20260904132928 82 263 1.0 2.0 0.00 0.00 0.00 76 1012.5
20260904132423 82 264 4.0 5.0 0.00 0.00 0.00 76 1012.8
20260904131922 82 282 2.0 2.0 0.00 0.00 0.00 77 1012.8
20260904131417 82 276 4.0 6.0 0.00 0.00 0.00 77 1012.4
20260904130913 82 266 0.0 0.0 0.00 0.00 0.00 78 1012.6
20260904130412 81 262 3.0 5.0 0.00 0.00 0.00 78 1012.5
20260904125907 81 260 3.0 3.0 0.00 0.00 0.00 79 1012.4
20260904125404 80 241 3.0 5.0 0.00 0.00 0.00 80 1012.7
20260904124903 80 288 2.0 2.0 0.00 0.00 0.00 80 1012.7
20260904124359 79 268 3.0 5.0 0.00 0.00 0.00 81 1012.7
20260904123854 80 253 1.0 2.0 0.00 0.00 0.00 82 1012.8
20260904123350 79 289 2.0 2.0 0.00 0.00 0.00 82 1012.6
20260904122845 79 26 0.0 3.0 0.00 0.00 0.00 84 1012.6
20260904122344 78 267 0.0 0.0 0.00 0.00 0.00 84 1012.8
20260904121839 78 273 1.0 1.0 0.00 0.00 0.00 84 1012.7
20260904121336 78 254 4.0 7.0 0.00 0.00 0.00 84 1012.7
20260904120832 78 274 2.0 3.0 0.00 0.00 0.00 84 1012.6
20260904120327 77 270 0.0 1.0 0.00 0.00 0.00 87 1012.6
20260904115822 77 266 1.0 1.0 0.00 0.00 0.00 88 1012.6
20260904115318 76 244 0.0 1.0 0.00 0.00 0.00 90 1012.7
20260904114818 75 287 0.0 1.0 0.00 0.00 0.00 91 1012.6
20260904114312 75 260 0.0 0.0 0.00 0.00 0.00 92 1012.8
20260904113807 75 254 0.0 0.0 0.00 0.00 0.00 93 1012.4
20260904113306 75 245 0.0 0.0 0.00 0.00 0.00 94 1012.5
20260904112801 74 271 0.0 0.0 0.00 0.00 0.00 95 1012.4
20260904112257 74 254 0.0 0.0 0.00 0.00 0.00 95 1012.2
20260904111752 74 262 0.0 0.0 0.00 0.00 0.00 95 1012.2
20260904111248 74 258 0.0 0.0 0.00 0.00 0.00 96 1012.2
20260904110744 74 264 0.0 0.0 0.00 0.00 0.00 96 1012.1
20260904110243 74 260 0.0 0.0 0.00 0.00 0.00 97 1012.3
20260904105738 74 256 0.0 0.0 0.00 0.00 0.00 97 1012.1
20260904105233 74 251 0.0 0.0 0.00 0.00 0.00 97 1012.2
20260904104728 74 262 0.0 0.0 0.00 0.00 0.00 97 1012.1
20260904104223 74 262 0.0 0.0 0.00 0.00 0.00 97 1012.2
20260904103720 74 263 0.0 0.0 0.00 0.00 0.00 97 1012.3
20260904103215 74 263 0.0 0.0 0.00 0.00 0.00 97 1012.2
20260904102711 74 263 0.0 0.0 0.00 0.00 0.00 97 1011.9
20260904102206 75 258 0.0 0.0 0.00 0.00 0.00 97 1012.0
20260904101703 75 253 0.0 0.0 0.00 0.00 0.00 97 1012.1
20260904101158 75 249 1.0 1.0 0.00 0.00 0.00 96 1011.8
20260904100654 75 235 1.0 1.0 0.00 0.00 0.00 96 1012.0
20260904100149 75 266 1.0 1.0 0.00 0.00 0.00 96 1012.0